Regional Weather Roundup
Issued by NWS Sioux Falls, SD

Home | Current Version | Previous Version | Text Only | Print | Product List | Glossary On
Versions: 1 2 3 4 5 6 7 8 9 10 11 12 13 14 15 16 17 18 19 20 21 22 23 24 25 26 27 28 29 30 31 32 33 34 35 36 37 38 39 40 41 42 43 44 45 46 47 48 49 50
000
ASUS43 KFSD 201010
RWRFSD

WEATHER ROUNDUP FOR SE SOUTH DAKOTA/SW MINNESOTA/NW IOWA
NATIONAL WEATHER SERVICE SIOUX FALLS SD
400 AM CST SAT DEC 20 2014

NOTE: "FAIR" INDICATES FEW OR NO CLOUDS BELOW 12,000 FEET WITH NO
SIGNIFICANT WEATHER AND OR OBSTRUCTIONS TO VISIBILITY.


SDZ038>040-050-052>070-201100-
SOUTHEAST SOUTH DAKOTA

CITY           SKY/WX    TMP DP  RH WIND       PRES   REMARKS
CHAMBERLAIN    MOCLDY    11   9  91 E3        29.99F FOG
HURON          FOG       26  25  96 SE9       30.03F VSB 1/2 WCI  17
MADISON        CLOUDY    28  28 100 S13       30.03S WCI  18
MITCHELL       FOG       27  26  96 S10       30.04F VSB 1/4 WCI  17
SIOUX FALLS    CLOUDY    31  29  92 S7        30.06S WCI  24
WINNER         FAIR      23  15  71 S3        29.97S
YANKTON        CLOUDY    30  28  93 SW7       30.07S WCI  23
$$

MNZ071-072-080-081-089-090-097-098-201100-
SOUTHWEST MINNESOTA

CITY           SKY/WX    TMP DP  RH WIND       PRES   REMARKS
FAIRMONT       CLOUDY    30  25  80 SW9       30.13S WCI  22
JACKSON        CLOUDY    30  28  93 S9        30.10F FOG     WCI  22
LUVERNE        CLOUDY    32  30  93 S10       30.07F FOG     WCI  24
MARSHALL       CLOUDY    30  27  86 SW15      30.07F WCI  19
MONTEVIDEO     CLOUDY    30  30 100 SW9       30.08F FOG     WCI  22
PIPESTONE      CLOUDY    30  28  93 SW3       30.04S FOG
REDWOOD FALLS  CLOUDY    32  28  85 S13       30.10S WCI  22
TRACY          CLOUDY    32  30  92 S12       30.07F WCI  23
WINDOM         CLOUDY    30  28  93 S7        30.09F FOG     WCI  23
WORTHINGTON    CLOUDY    28  28 100 S10       30.07F WCI  19
$$

IAZ001>003-012>014-020>022-031-032-NEZ013-014-SDZ071-201100-
NORTHWEST IOWA

CITY           SKY/WX    TMP DP  RH WIND       PRES   REMARKS
CHEROKEE       CLOUDY    30  30 100 S10       30.11S FOG     WCI  21
DENISON        CLOUDY    28  30 100 S14       30.10S FOG     WCI  17
ESTHERVILLE    CLOUDY    28  27  96 S12       30.12S WCI  18
LE MARS        CLOUDY    32  32 100 S9        30.10S FOG     WCI  24
ORANGE CITY    CLOUDY    30  30 100 S7        30.08S FOG     WCI  23
SHELDON        CLOUDY    30  30 100 S12       30.07F FOG     WCI  21
SIOUX CITY     CLOUDY    32  30  92 SE10      30.10F FOG     WCI  24
SPENCER        CLOUDY    30  27  88 S12       30.11S FOG     WCI  20
STORM LAKE     CLOUDY    28  28 100 S12       30.11S FOG     WCI  18
$$

ABBREVIATIONS USED IN REMARKS
   TC - TEMPERATURE IN CELSIUS
  WCI - WIND CHILL INDEX
   HX - HEAT INDEX
  VSB - VISIBILITY




USA.gov is the U.S. government's official web portal to all federal, state and local government web resources and services.